Flag for U.S.A. Weather past 2 weeks in Mason, Ohio, U.S.A.

Now
77 °F

Sunny.


Feels Like: 79 °F
Forecast: 52 / 80 °F
Wind: 3 mph from North

Location: Butler County Regional Airport

Current Time: Jul 25, 2014 at 2:57:05 PM

Latest Report: Jul 25, 2014 at 1:53 PM


Visibility: 10 mi

Pressure: 30.06 "Hg

Humidity: 48%

Dew point: 56 °F

Location of MasonLocation

Historic Weather in Mason — Graph

°F

Mason temperature yesterday

Maximum temperature yesterday: 77 °F (at 2:53 PM)
Minimum temperature yesterday: 59 °F (at 11:53 PM)
Average temperature yesterday: 69 °F

Past Weeks' High & Low Weather Summary

 TemperatureHumidityPressure
High90 °F (Jul 13, 4:53 PM)100% (Jul 14, 1:53 AM)30.22 "Hg (Jul 14, 1:53 AM)
Low52 °F (Jul 17, 4:53 AM)39% (Jul 11, 3:53 PM)29.82 "Hg (Jul 14, 5:53 PM)
Average70 °F77%30.05 "Hg
* Reported Jul 10 12:53 PM — Jul 25 12:53 PM, Mason, Weather by CustomWeather, © 2014

Note: Actual official high and low records may vary slightly from our data, if they occured in-between our weather recording intervals... More about our weather records

Advertising

Mason weather history for previous 24 hours

 ConditionsComfort  
Time TempWeatherWind HumidityBarometerVisibility
12:53 PM
Jul 25
76 °FSunny.8 mph50%30.10 "Hg10 mi
11:53 AM73 °FSunny.No wind50%30.10 "Hg10 mi
10:53 AM72 °FSunny.3 mph57%30.12 "Hg10 mi
9:53 AM68 °FSunny.No wind65%30.10 "Hg10 mi
8:53 AM63 °FSunny.No wind81%30.10 "Hg10 mi
7:53 AM58 °FSunny.No wind90%30.13 "Hg10 mi
6:53 AM52 °FClear.No wind100%30.11 "Hg10 mi
5:53 AM52 °FClear.No wind97%30.10 "Hg10 mi
4:53 AM52 °FClear.No wind97%30.08 "Hg10 mi
3:53 AM53 °FClear.No wind96%30.06 "Hg10 mi
2:53 AM55 °FClear.No wind93%30.07 "Hg10 mi
1:53 AM56 °FClear.No wind93%30.06 "Hg10 mi
12:53 AM57 °FClear.No wind93%30.08 "Hg10 mi
11:53 PM
Jul 24
59 °FClear.No wind90%30.07 "Hg10 mi
10:53 PM67 °FOvercast.5 mph66%30.08 "Hg10 mi
9:53 PM67 °FPartly sunny.6 mph66%30.06 "Hg10 mi
8:53 PM71 °FOvercast.7 mph57%30.05 "Hg10 mi
7:53 PM74 °FScattered clouds.6 mph53%30.03 "Hg10 mi
6:53 PM75 °FSunny.8 mph52%30.01 "Hg10 mi
5:53 PM77 °FPassing clouds.6 mph47%30.03 "Hg10 mi
4:53 PM77 °FPartly sunny.10 mph47%30.05 "Hg10 mi
3:53 PM77 °FScattered clouds.7 mph48%30.05 "Hg10 mi
2:53 PM77 °FPassing clouds.12 mph50%30.06 "Hg10 mi
Weather by CustomWeather, © 2014

See weather overviewHow to use our weather pages